sat.trackr.live / text

‹ back to catalog

STARLINK-34546

NORAD 64718 · 2025-142Y

PAYLOAD ACTIVE UNKNOWN

§ Identity

Operator
Country
US
Launch date
2025-06-28
Launch site
AFWTR
Launch vehicle
Mass (kg)
RCS (m²)

Purposes: comms

External: N2YO · Heavens-Above · Gunter

§ Orbital elements

Epoch: 2026-09-20T05:05:23.036352Z

Period
94.14 min
Inclination
70.0015°
Eccentricity
0.0002858
Mean motion
15.29594123 rev/d
Perigee alt
475.1 km
Apogee alt
479.0 km
Semi-major
6,855.2 km
B*
3.6032e-4
RAAN
181.7923°
Arg perigee
272.5328°
Mean anomaly
87.5519°
Rev number
6,884

§ Raw data

STARLINK-345461 64718U 25142Y   26263.21207218  .00010249  00000+0  36032-3 0  99942 64718  70.0015 181.7923 0002858 272.5328  87.5519 15.29594123 68846

JSON: /api/v1/satellites/64718 · /tle

For live sub-satellite position, see the globe view (requires WebGL).

§ Visibility from observer

Set your observer location to see the next 7 days of passes ≥ 10°. The values pass through the URL so the page stays shareable.

No JS? Fill the form by hand. The geolocation button needs JavaScript.